Regional Weather Roundup
Issued by NWS

Home | Current Version | Previous Version | Text Only | Print | Product List | Glossary Off
Versions: 1 2 3 4 5 6 7 8 9 10 11 12 13 14 15 16 17 18 19 20 21 22 23 24 25 26 27 28 29 30 31 32 33 34 35 36 37 38 39 40 41 42 43 44 45 46 47 48 49 50

000
ASUS43 KLOT 280021
RWRIL

ILLINOIS REGIONAL WEATHER ROUNDUP
NATIONAL WEATHER SERVICE CHICAGO/ROMEOVILLE IL
700 PM CDT MON APR 27 2015

NOTE: "FAIR" INDICATES FEW OR NO CLOUDS BELOW 12,000 FEET WITH NO
SIGNIFICANT WEATHER AND/OR OBSTRUCTIONS TO VISIBILITY.

* THESE STATIONS ARE NOT UNDER NWS QUALITY CONTROL. THEY ALSO MAY NOT
  REPORT WEATHER SUCH AS PRECIPITATION OR FOG.

ILZ001-002-007-009-015-016-024-280100-
NORTHWEST ILLINOIS

CITY           SKY/WX    TMP DP  RH WIND       PRES   REMARKS
MOLINE         CLEAR     63  33  32 N7        30.08S
6HR MIN TEMP:  62; 6HR MAX TEMP:  67;

STERLING*      CLEAR     61  36  39 NE8       30.08R
SAVANNA*       CLEAR     65  31  28 N7        30.07F
$$

ILZ003-004-008-010-011-017-018-280100-
NORTH CENTRAL ILLINOIS

CITY           SKY/WX    TMP DP  RH WIND       PRES   REMARKS
ROCKFORD       PTCLDY    62  32  32 NE9       30.10S
6HR MIN TEMP:  61; 6HR MAX TEMP:  66;

FREEPORT*      CLEAR     62  33  33 N7        30.09F
ROCHELLE*      CLEAR     61  37  40 E13       30.09R
DE KALB*       PTCLDY    53  37  53 E10       30.10R
PERU*          CLEAR     63  32  32 NE15      30.08R
$$

ILZ005-006-012>014-019>023-280100-
NORTHEAST ILLINOIS

CITY           SKY/WX    TMP DP  RH WIND       PRES   REMARKS
CHICAGO-OHARE  PTCLDY    50  33  52 NE12      30.11S
6HR MIN TEMP:  49; 6HR MAX TEMP:  55;

CHICAGO-MIDWAY PTCLDY    51  33  50 N14G20    30.12S
6HR MIN TEMP:  51; 6HR MAX TEMP:  56;

AURORA         PTCLDY    54  35  48 E10       30.11R
6HR MIN TEMP:  54; 6HR MAX TEMP:  63;

LANSING*       CLEAR     47  31  55 N10       30.12S
JOLIET*        CLEAR     53  36  53 NE13      30.11S
WAUKEGAN       PTCLDY    46  33  60 VRB6      30.11F
6HR MIN TEMP:  46; 6HR MAX TEMP:  51;

DUPAGE AIRPORT CLEAR     50  34  54 NE9       30.10S
6HR MIN TEMP:  50; 6HR MAX TEMP:  61;

KANKAKEE*      CLEAR     50  35  57 NE16G24   30.10S
WHEELING       CLEAR     48  32  53 NE8       30.14S
6HR MIN TEMP:  47; 6HR MAX TEMP:  52;

MORRIS*        CLEAR     54  35  49 E10G16    30.08S
ROMEOVILLE*    CLEAR     51  34  52 NE10      30.11S
NORTHERLY ISL    N/A     44  34  67 MISG        N/A
$$

LMZ740>746-280100-
SOUTHERN LAKE MICHIGAN

STATION/POSITION SKY/WX   TEMP    WIND        PRES    VSBY  WAVE
                          AIR SEA DIR/SP/G                  HT/PER
                          (F)     (DEG/KT/KT) (MB)    (MI)  (FT/S)
HARRISON CRIB              42     340/  8/  9   N/A
BURNHAM HARBOR             44     340/  9/ 11   N/A
CALUMET HARBOR             44     350/  7/ 11   N/A
BURNS HARBOR               42      30/ 10/ 12 1020.3F
MICHIGAN CITY              42      20/ 11/ 12   N/A
MICHIGAN CITY 6N           41 45   10/ 10/ 14   N/A           3/ 5
$$

ILZ025>027-034>036-040-047-049-050-058-095>099-280100-
WEST-CENTRAL ILLINOIS

CITY           SKY/WX    TMP DP  RH WIND       PRES   REMARKS
QUINCY         CLEAR     63  35  35 NE9       30.06F
GALESBURG*     CLEAR     60  38  43 N10       30.08S
MACOMB*        CLEAR     63  35  35 NE14      30.10R
JACKSONVILLE*  CLEAR     64  38  38 N8        30.06S
PITTSFIELD*    PTCLDY    63  35  35 NE6       30.07S
$$

ILZ028>032-037-038-041>044-048-051>054-059>061-280100-
CENTRAL ILLINOIS

CITY           SKY/WX    TMP DP  RH WIND       PRES   REMARKS
PONTIAC        CLEAR     58  40  50 NE18      30.09R
BLOOMINGTON    CLEAR     60  37  42 NE14      30.08R
DECATUR        CLEAR     59  37  44 NE13      30.07R
PEORIA         CLEAR     64  35  34 NE7       30.07S
6HR MIN TEMP:  61; 6HR MAX TEMP:  67;

LACON*         CLEAR     62  33  34 NE10      30.06S
LINCOLN*       CLEAR     62  36  37 N12       30.05F
SPRINGFIELD    CLEAR     62  37  39 NE14      30.06F
6HR MIN TEMP:  61; 6HR MAX TEMP:  66;

TAYLORVILLE    CLEAR     59  36  41 NE13      30.06S
$$

ILZ033-039-045-046-055>057-062-063-280100-
EAST-CENTRAL ILLINOIS

CITY           SKY/WX    TMP DP  RH WIND       PRES   REMARKS
CHAMPAIGN      CLEAR     57  35  43 NE10      30.07R
DANVILLE*      CLEAR     52  37  55 NE16      30.05R
RANTOUL*       CLEAR     57  38  47 NE14      30.08R
MATTOON        CLEAR     56  35  45 NE16      30.07R
PARIS*         CLEAR     54  37  53 NE7G16    30.08S
$$

ILZ079-100>102-280100-
SOUTHWEST ILLINOIS

CITY           SKY/WX    TMP DP  RH WIND       PRES   REMARKS
ALTON          PTCLDY    63  28  27 NE6       30.05S
BELLEVILLE     PTCLDY    61  39  44 NE7       30.03S
CAHOKIA*       PTCLDY    62  38  40 NE10      30.04S
SPARTA*        PTCLDY    59  40  48 NE10      30.03S
$$

ILZ064>066-069>071-074>076-080>082-084>086-088>090-092>094-280100-
SOUTH-CENTRAL ILLINOIS

CITY           SKY/WX    TMP DP  RH WIND       PRES   REMARKS
CARBONDALE     PTCLDY    61  39  44 NE9       30.01S
6HR MIN TEMP:  61; 6HR MAX TEMP:  67;

CAIRO*         MOCLDY    63  40  43 N10       29.98S
EFFINGHAM*     CLEAR     58  33  37 NE8G16    30.06S
MARION         PTCLDY    61  41  48 N12G17    30.02R
MT. VERNON     PTCLDY    59  36  41 NE9G16    30.03S
CENTRALIA*     PTCLDY    61  36  39 NE8G17    30.03S
SALEM*         PTCLDY    62  37  40 N12G18    30.04R
METROPOLIS*    MOCLDY    63  41  44 NE9       29.98S
$$

ILZ067-068-072-073-078-083-087-091-280100-
SOUTHEAST ILLINOIS

CITY           SKY/WX    TMP DP  RH WIND       PRES   REMARKS
LAWRENCEVILLE  CLEAR     58  37  45 N15       30.04S
FLORA*         CLEAR     60  38  44 N8G16     30.04R
FAIRFIELD*     PTCLDY    59  39  46 N13       30.02R
HARRISBURG*    PTCLDY    61  39  45 N9        30.02S
ROBINSON*      CLEAR     56  37  48 N14       30.06S
CARMI*         CLEAR     60  34  38 N13G20    30.01S
$$

ABBREVIATIONS USED IN REMARKS
   TC - TEMPERATURE IN CELSIUS
  WCI - WIND CHILL INDEX
   HX - HEAT INDEX
  VSB - VISIBILITY
$$




USA.gov is the U.S. government's official web portal to all federal, state and local government web resources and services.